Location: Unspecified
(0.0000°N, 0.0000°E)
Time: 13:59:12
(UTC+00:00)

Envisat - Pass Details

Date: 14 April 2021
Orbit: 764 x 766 km, 98.1° (Epoch: 16 April)

Event Time Altitude Azimuth Distance (km) Brightness Sun altitude
Rises 18:21:24 0° 207° (SSW) 3,229 6.5 -5.2°
Reaches altitude 10° 18:25:32 10° 240° (WSW) 2,299 6.3 -6.2°
Maximum altitude 18:27:01 11° 257° (WSW) 2,213 6.7 -6.6°
Drops below altitude 10° 18:28:30 10° 274° (W) 2,296 7.3 -7.0°
Sets 18:32:39 0° 308° (NW) 3,217 7.4 -8.0°
